[[{"header":{"parameterUnit":"m.s-1","parameterCategory":1,"la1":30.2991,"la2":30.254,"lo1":-89.0895,"lo2":-89.0444,"dy":0.0017,"dx":0.0017,"nx":28,"ny":28,"refTime":"2024-09-01T21:00:00:Z","depth":0,"parameterNumber":2,"parameterNumberName":"U-component_of_WINDS"},"data":[0,0,0,0,0,0,0,0,0,0,0,0,0,0,0,0,0,0,0,0,0,0,0,0,0,0,0,0,0,0,0,0,0,0,0,0,0,0,0,0,0,0,0,0,0,0,0,0,0,0,0,0,0,0,0,0,0,0,0.7236,0.7235,0,0.7121,0.712,0.7119,0.6982,0.6979,0.6977,0.6975,0.6858,0.6857,0.6856,0,0,0,0,0,0,0,0,0,0,0,0,0,0.7339,0.7338,0.7236,0.7235,0.7233,0.7121,0.712,0.7118,0.6982,0.6979,0.6977,0.6974,0.6859,0.6857,0.6856,0,0,0,0,0,0,0,0,0,0,0,0,0,0.7266,0.7337,0.7236,0.7152,0.7143,0.7122,0.712,0.7118,0.6982,0.6979,0.6976,0.6973,0.6859,0.6858,0.6856,0.6909,0,0,0.6851,0.685,0,0,0,0,0,0,0,0,0.7271,0.7263,0.7166,0.7157,0.7148,0.7062,0.7113,0.7048,0.6983,0.7043,0.6975,0.6972,0.6929,0.6921,0.6907,0.6903,0.6898,0.6851,0.6849,0.6849,0.6848,0,0,0,0,0,0,0,0.7276,0.7267,0.7191,0.7164,0.7153,0.712,0.7106,0.71,0.7005,0.7038,0.7028,0.7016,0.6923,0.6909,0.6903,0.6897,0.6851,0.6849,0.6848,0.6847,0.6932,0.6935,0,0,0,0,0,0,0.7293,0.7272,0.7194,0.7187,0.7203,0.7121,0.7105,0.7093,0.7005,0.6989,0.7019,0.701,0.6913,0.6905,0.6898,0.6955,0.6849,0.6847,0.6846,0.6929,0.6933,0.6936,0,0,0,0,0,0,0.7296,0.7288,0.7199,0.7227,0.7213,0.7122,0.711,0.7092,0.7077,0.6991,0.6973,0.7021,0.691,0.6901,0.6907,0.6949,0.6846,0.6845,0.6925,0.693,0.6934,0.7069,0,0,0,0,0,0,0.73,0.729,0.7308,0.7228,0.7212,0.721,0.7112,0.7092,0.7075,0.7062,0.6988,0.6973,0.6907,0.6911,0.6906,0.6945,0.6843,0.6921,0.6927,0.6933,0.706,0.7078,0.7092,0,0,0,0,0,0.7304,0.7351,0.731,0.7301,0.7233,0.7212,0.7203,0.7126,0.7079,0.7097,0.7042,0.6975,0.6945,0.6913,0.6906,0.6945,0.6918,0.6925,0.6932,0.7053,0.7074,0.7092,0,0,0,0,0,0,0.7438,0.7338,0.7292,0.7314,0.7273,0.7189,0.721,0.7151,0.7123,0.7112,0.7018,0.7003,0.7021,0.6983,0.6949,0.6992,0.6922,0.6928,0.7016,0.7035,0.7051,0.706,0.6842,0,0,0,0,0,0.747,0.7461,0.7375,0.7403,0.7384,0.7302,0.7289,0.7234,0.7187,0.7169,0.7114,0.7071,0.7052,0.7042,0.7019,0.7054,0.7036,0.7078,0.7094,0.7108,0.7114,0.7131,0.7148,0.696,0.696,0.696,0,0,0.7536,0.7481,0.7481,0.7428,0.739,0.7383,0.7287,0.7284,0.7278,0.7168,0.7171,0.713,0.7076,0.7098,0.7104,0.7067,0.7163,0.7117,0.7129,0.7128,0.714,0.7158,0.7174,0.6965,0.6964,0.6964,0,0,0.7654,0.7611,0.763,0.7593,0.7536,0.7481,0.7486,0.7411,0.7379,0.7381,0.7298,0.7291,0.726,0.7225,0.7204,0.731,0.7248,0.7305,0.739,0.7407,0.7422,0.7434,0.7473,0.7487,0.7312,0.7313,0.7313,0,0.7743,0.7729,0.7647,0.7649,0.7629,0.7529,0.7548,0.7517,0.7456,0.7444,0.7403,0.7363,0.732,0.7332,0.7358,0.7344,0.7347,0.7313,0.7426,0.7438,0.7449,0.7484,0.7499,0.732,0.7319,0.7318,0.7318,0,0.7843,0.7835,0.7857,0.7801,0.7783,0.7794,0.7713,0.7705,0.7652,0.7602,0.7605,0.755,0.7515,0.7514,0.7462,0.752,0.7498,0.7443,0.7371,0.7475,0.7507,0.752,0.733,0.7328,0.7326,0.7324,0,0,0.804,0.7939,0.7949,0.7922,0.7852,0.7845,0.7852,0.7817,0.7813,0.7775,0.7778,0.7755,0.7704,0.768,0.7623,0.7638,0.7727,0.7581,0.7578,0.761,0.7787,0.7829,0.7846,0.7686,0.7688,0.769,0.7792,0,0.8145,0.815,0.8077,0.8102,0.8094,0.8001,0.8006,0.7965,0.7918,0.7905,0.7853,0.7839,0.7772,0.7757,0.7768,0.7714,0.7761,0.7705,0.7688,0.7689,0.7704,0.7862,0.7906,0.8005,0.7804,0.7806,0.7807,0,0.8267,0.8236,0.8261,0.8191,0.8185,0.8192,0.8155,0.8144,0.8095,0.806,0.8034,0.7969,0.7972,0.7904,0.7906,0.787,0.7859,0.7831,0.7833,0.7828,0.7754,0.7862,0.8035,0.805,0.7826,0.7824,0.7823,0,0.841,0.8374,0.8384,0.8364,0.8283,0.829,0.8257,0.8205,0.8189,0.8158,0.8147,0.8117,0.81,0.8078,0.8007,0.7964,0.8018,0.7944,0.7989,0.7991,0.8004,0.8004,0.8178,0.7998,0.7998,0.7998,0.7997,0,0.8534,0.8553,0.8447,0.8454,0.8472,0.8388,0.841,0.8367,0.8322,0.8319,0.8236,0.8235,0.8142,0.8131,0.8076,0.8086,0.8079,0.8051,0.8036,0.8059,0.8062,0.805,0.8041,0.8001,0.8001,0.8,0.7999,0,0.8696,0.8625,0.8631,0.8554,0.8535,0.8552,0.8486,0.8489,0.8438,0.8435,0.843,0.835,0.8332,0.826,0.8225,0.8188,0.8217,0.8188,0.8233,0.8224,0.8273,0.827,0.8445,0.8464,0.8272,0.8274,0.8276,0,0.878,0.8792,0.8717,0.8709,0.8679,0.8667,0.8651,0.857,0.8557,0.8503,0.8513,0.8489,0.8465,0.8442,0.8381,0.8354,0.8324,0.8387,0.8319,0.8341,0.8325,0.8325,0.8326,0.8401,0.8404,0.8406,0.8408,0,0.8936,0.8901,0.8881,0.885,0.8833,0.8805,0.8771,0.8769,0.8678,0.8668,0.8649,0.8631,0.8596,0.8574,0.8537,0.8503,0.8441,0.843,0.8439,0.8461,0.8488,0.8474,0.8273,0.8426,0.8424,0.8423,0.8422,0.8421,0.9061,0.9068,0.9017,0.8998,0.8964,0.8935,0.8934,0.8883,0.8866,0.8831,0.8784,0.8772,0.8724,0.8668,0.8639,0.8628,0.8593,0.8606,0.861,0.8614,0.8626,0.849,0.8621,0.8621,0.862,0.862,0.8619,0,0.9214,0.9176,0.916,0.9115,0.9101,0.9044,0.9004,0.8996,0.8986,0.8946,0.8925,0.8904,0.8882,0.882,0.8792,0.8796,0.8766,0.8791,0.879,0.8783,0.8658,0.8653,0.8815,0.8815,0.8815,0.8815,0.8815,0.8815,0.9291,0.9301,0.926,0.9252,0.9214,0.9201,0.9183,0.9156,0.9124,0.9105,0.9086,0.9045,0.8997,0.8965,0.8943,0.8925,0.8918,0.8953,0.8926,0.881,0.8792,0.8774,0.8768,0.8952,0.8952,0.9051,0.9052,0.9053]},{"header":{"parameterUnit":"m.s-1","parameterCategory":1,"la1":30.2991,"la2":30.254,"lo1":-89.0895,"lo2":-89.0444,"dy":0.0017,"dx":0.0017,"nx":28,"ny":28,"refTime":"2024-09-01T21:00:00:Z","depth":0,"parameterNumber":3,"parameterNumberName":"V-component_of_WINDS"},"data":[0,0,0,0,0,0,0,0,0,0,0,0,0,0,0,0,0,0,0,0,0,0,0,0,0,0,0,0,0,0,0,0,0,0,0,0,0,0,0,0,0,0,0,0,0,0,0,0,0,0,0,0,0,0,0,0,0,0,-1.85,-1.85,0,-1.8542,-1.8542,-1.8543,-1.8568,-1.8568,-1.8568,-1.8569,-1.8608,-1.8609,-1.861,0,0,0,0,0,0,0,0,0,0,0,0,0,-1.8438,-1.8439,-1.85,-1.85,-1.8501,-1.8542,-1.8542,-1.8543,-1.8568,-1.8568,-1.8568,-1.8569,-1.8608,-1.8609,-1.861,0,0,0,0,0,0,0,0,0,0,0,0,0,-1.847,-1.8439,-1.85,-1.8518,-1.8521,-1.8542,-1.8542,-1.8543,-1.8568,-1.8568,-1.8568,-1.8569,-1.8608,-1.8609,-1.8611,-1.8615,0,0,-1.8615,-1.8615,0,0,0,0,0,0,0,0,-1.8469,-1.8473,-1.8515,-1.8517,-1.852,-1.855,-1.8535,-1.8567,-1.8568,-1.855,-1.8569,-1.8569,-1.8589,-1.8592,-1.8599,-1.8617,-1.8619,-1.8615,-1.8616,-1.8616,-1.8617,0,0,0,0,0,0,0,-1.8466,-1.8471,-1.8516,-1.8516,-1.8518,-1.8523,-1.8528,-1.8541,-1.8568,-1.8552,-1.8553,-1.8558,-1.859,-1.8598,-1.86,-1.8619,-1.8615,-1.8616,-1.8617,-1.8618,-1.8642,-1.8642,0,0,0,0,0,0,-1.8462,-1.8469,-1.8515,-1.8518,-1.8494,-1.8524,-1.853,-1.854,-1.8568,-1.8572,-1.8558,-1.8559,-1.8595,-1.8598,-1.8602,-1.8609,-1.8616,-1.8618,-1.8619,-1.8643,-1.8642,-1.8642,0,0,0,0,0,0,-1.846,-1.8465,-1.8513,-1.8494,-1.85,-1.8525,-1.8536,-1.8541,-1.8549,-1.8573,-1.8577,-1.8561,-1.8595,-1.86,-1.8612,-1.861,-1.8618,-1.862,-1.8643,-1.8643,-1.8642,-1.8623,0,0,0,0,0,0,-1.8458,-1.8465,-1.8468,-1.8494,-1.8501,-1.8524,-1.8536,-1.8541,-1.8551,-1.8553,-1.8577,-1.8581,-1.8596,-1.8609,-1.8613,-1.8612,-1.8621,-1.8643,-1.8643,-1.8642,-1.8624,-1.8622,-1.862,0,0,0,0,0,-1.8456,-1.846,-1.8468,-1.8473,-1.8506,-1.8524,-1.8528,-1.8546,-1.8551,-1.8554,-1.8569,-1.858,-1.861,-1.861,-1.8615,-1.8615,-1.8643,-1.8643,-1.8642,-1.8624,-1.8622,-1.862,0,0,0,0,0,0,-1.8433,-1.8464,-1.8473,-1.8486,-1.8502,-1.8528,-1.8532,-1.8543,-1.8557,-1.8559,-1.8579,-1.8584,-1.8594,-1.8605,-1.8606,-1.862,-1.8628,-1.8628,-1.8613,-1.8611,-1.8609,-1.8606,-1.8622,0,0,0,0,0,-1.8429,-1.8442,-1.8468,-1.8477,-1.8485,-1.8507,-1.8515,-1.8528,-1.8545,-1.8552,-1.8568,-1.8583,-1.8596,-1.8604,-1.8617,-1.8625,-1.863,-1.8627,-1.8625,-1.8624,-1.8624,-1.8628,-1.8627,-1.8641,-1.8641,-1.8641,0,0,-1.8422,-1.844,-1.8447,-1.8473,-1.8487,-1.8499,-1.8513,-1.8525,-1.8533,-1.8553,-1.8566,-1.8578,-1.8596,-1.8606,-1.8612,-1.8616,-1.8621,-1.8623,-1.8622,-1.8623,-1.8628,-1.8627,-1.8625,-1.8641,-1.8641,-1.8641,0,0,-1.8415,-1.843,-1.8439,-1.8453,-1.8474,-1.8489,-1.8491,-1.8515,-1.8524,-1.8537,-1.8552,-1.8562,-1.8584,-1.8596,-1.8605,-1.8601,-1.8612,-1.8604,-1.8596,-1.86,-1.8599,-1.8598,-1.8596,-1.8596,-1.8605,-1.8604,-1.8604,0,-1.8403,-1.8423,-1.8442,-1.8454,-1.8464,-1.8483,-1.8491,-1.8503,-1.8527,-1.8533,-1.8538,-1.8565,-1.8579,-1.8592,-1.8591,-1.8598,-1.86,-1.8602,-1.8598,-1.8597,-1.8597,-1.8595,-1.8594,-1.8603,-1.8604,-1.8604,-1.8604,0,-1.8406,-1.842,-1.8424,-1.8448,-1.8458,-1.8468,-1.8488,-1.8496,-1.8507,-1.8521,-1.8533,-1.855,-1.8566,-1.857,-1.8581,-1.8584,-1.8586,-1.8594,-1.8602,-1.8594,-1.8593,-1.8593,-1.8602,-1.8602,-1.8603,-1.8603,0,0,-1.8387,-1.8421,-1.8422,-1.8433,-1.8457,-1.8467,-1.8476,-1.8494,-1.85,-1.8515,-1.8523,-1.8541,-1.8548,-1.8558,-1.857,-1.8573,-1.8569,-1.8581,-1.8581,-1.8578,-1.8573,-1.8567,-1.8566,-1.8576,-1.8576,-1.8576,-1.8571,0,-1.8384,-1.8404,-1.8421,-1.8434,-1.8446,-1.8464,-1.8472,-1.8487,-1.8499,-1.851,-1.8523,-1.8535,-1.8544,-1.855,-1.8554,-1.8568,-1.8568,-1.8569,-1.8583,-1.8583,-1.8578,-1.8566,-1.856,-1.8555,-1.8571,-1.8571,-1.8571,0,-1.8383,-1.8398,-1.8413,-1.8435,-1.844,-1.8448,-1.8464,-1.8475,-1.8491,-1.85,-1.8511,-1.8523,-1.8533,-1.854,-1.8553,-1.8553,-1.8559,-1.8567,-1.8567,-1.8569,-1.8577,-1.8567,-1.8554,-1.8553,-1.857,-1.857,-1.857,0,-1.8367,-1.8391,-1.8403,-1.8411,-1.8437,-1.8442,-1.8453,-1.847,-1.8479,-1.8492,-1.8498,-1.8512,-1.852,-1.853,-1.8546,-1.8549,-1.8557,-1.8565,-1.8564,-1.8563,-1.8565,-1.8565,-1.8552,-1.8569,-1.8569,-1.8569,-1.8569,0,-1.8362,-1.837,-1.8396,-1.8403,-1.8412,-1.8431,-1.8439,-1.8452,-1.8466,-1.8475,-1.8491,-1.8498,-1.8518,-1.8528,-1.854,-1.8549,-1.8552,-1.8558,-1.8562,-1.8557,-1.8556,-1.8562,-1.8563,-1.8569,-1.8569,-1.8569,-1.8569,0,-1.8346,-1.8364,-1.8378,-1.8401,-1.8407,-1.8413,-1.8433,-1.8439,-1.8452,-1.8463,-1.8467,-1.8487,-1.8499,-1.8515,-1.8532,-1.854,-1.8547,-1.8552,-1.8542,-1.8544,-1.8541,-1.8541,-1.8532,-1.8532,-1.8548,-1.8548,-1.8548,0,-1.8342,-1.8348,-1.8373,-1.838,-1.8391,-1.8403,-1.8412,-1.843,-1.8438,-1.8457,-1.8461,-1.8475,-1.8487,-1.8505,-1.852,-1.8533,-1.8538,-1.8534,-1.854,-1.8535,-1.8538,-1.8537,-1.8538,-1.8533,-1.8532,-1.8532,-1.8532,0,-1.8332,-1.834,-1.8353,-1.8369,-1.838,-1.8393,-1.8406,-1.8411,-1.8432,-1.844,-1.8454,-1.8463,-1.848,-1.8493,-1.8507,-1.8517,-1.8528,-1.853,-1.853,-1.8526,-1.852,-1.8523,-1.8538,-1.853,-1.853,-1.853,-1.853,-1.8531,-1.8322,-1.8328,-1.8346,-1.836,-1.8372,-1.8384,-1.8392,-1.8406,-1.8417,-1.8433,-1.8443,-1.8455,-1.847,-1.8491,-1.85,-1.8509,-1.8513,-1.8514,-1.8514,-1.8514,-1.8512,-1.8518,-1.8512,-1.8512,-1.8512,-1.8512,-1.8512,0,-1.8313,-1.8325,-1.8338,-1.8356,-1.8367,-1.8376,-1.8391,-1.8399,-1.841,-1.8424,-1.8435,-1.8449,-1.8461,-1.8477,-1.849,-1.8494,-1.8499,-1.8497,-1.8497,-1.8499,-1.8508,-1.8507,-1.8492,-1.8492,-1.8492,-1.8492,-1.8492,-1.8492,-1.831,-1.8321,-1.8331,-1.8348,-1.836,-1.8373,-1.8381,-1.8391,-1.8402,-1.8418,-1.8428,-1.8439,-1.8453,-1.8467,-1.8478,-1.8482,-1.8486,-1.8482,-1.8488,-1.8496,-1.8498,-1.85,-1.8498,-1.8483,-1.8483,-1.8477,-1.8477,-1.8477]}]]